Regional Weather Roundup
Issued by NWS Kansas City/Pleasant Hill, MO

Home | Current Version | Previous Version | Text Only | Print | Product List | Glossary On
Versions: 1 2 3 4 5 6 7 8 9 10 11 12 13 14 15 16 17 18 19 20 21 22 23 24 25 26 27 28 29 30 31 32 33 34 35 36 37 38 39 40 41 42 43 44 45 46 47 48 49 50
402
ASUS43 KEAX 232210
RWREAX

WEATHER ROUNDUP FOR EASTERN KANSAS AND NORTHWEST MISSOURI
NATIONAL WEATHER SERVICE KANSAS CITY/PLEASANT HILL MO
500 PM CDT SAT SEP 23 2017

KSZ040-057-103>105-MOZ028-029-037-043-232300-
...KANSAS CITY METROPOLITAN AREA...

CITY           SKY/WX    TMP DP  RH WIND       PRES   REMARKS
K.C. INTL      MOSUNNY   87  68  52 S12       29.95F HX  90
K.C. DOWNTOWN  SUNNY     91  68  46 SE9       29.93F HX  95
LEES SUMMIT    SUNNY     88  68  51 S12       29.96F HX  91
OLATHE - IXD   MOSUNNY   87  66  49 S14       29.96F
OLATHE - OJC   SUNNY     86  68  54 S12       29.96F
LAWRENCE       SUNNY     89  68  49 SE17      29.93F HX  93

$$

MOZ001>008-011>017-020>025-030>033-038>040-044>046-053-054-232300-
...NORTHERN AND CENTRAL MISSOURI...

CITY           SKY/WX    TMP DP  RH WIND       PRES   REMARKS
ST. JOSEPH     MOSUNNY   91  68  46 S16G23    29.92F HX  95
MOSBY          CLEAR     90  64  43 S9        29.95F HX  91
WARRENSBURG    SUNNY     88  64  45 SE9       29.96F
WHITEMAN AFB   MOSUNNY   89  67  48 S7        29.95F HX  92
CLINTON        SUNNY     90  66  45 S3        29.97F HX  92
SEDALIA        SUNNY     91  68  46 SE7       29.98F HX  95
WARSAW         NOT AVBL
CHILLICOTHE      N/A     88  68  51 S5        29.96F HX  91
KIRKSVILLE     MOSUNNY   88  62  41 SE6       29.99S

$$

MOZ041-047>049-056>058-063>065-088>090-097-232300-
...EASTERN AND SOUTHERN MISSOURI...

CITY           SKY/WX    TMP DP  RH WIND       PRES   REMARKS
ST. LOUIS INTL MOSUNNY   91  61  36 E10       29.99F HX  91
SPIRIT OF STL  SUNNY     91  65  41 NE8       29.97F HX  93
COLUMBIA       SUNNY     89  65  44 SE5       29.98F HX  91
JEFFERSON CITY MOSUNNY   91  64  40 E6        29.96F HX  92
ROLLA          SUNNY     91  61  36 E8        30.00S HX  91
OSAGE BEACH    PTSUNNY   89  67  47 E6        29.98F HX  92
SPRINGFIELD    MOSUNNY   88  63  43 SE6       29.97F
BRANSON        MOSUNNY   90  61  37 SE9       29.99F
JOPLIN         SUNNY     89  64  43 S6        29.96F HX  90
WEST PLAINS    SUNNY     89  62  40 E9        30.01S

$$

IAZ060-094-KSZ022-034>040-054-083-096-NEZ052-066-093-232300-
...KANSAS...SOUTHEAST NEBRASKA AND IOWA...

CITY           SKY/WX    TMP DP  RH WIND       PRES   REMARKS
TOPEKA         SUNNY     89  67  47 S12       29.92F HX  92
MANHATTAN      MOSUNNY   91  63  39 S21G28    29.88F HX  92
EMPORIA        SUNNY     88  62  41 SE17G23   29.92F
CHANUTE        MOSUNNY   86  66  51 SE7       29.95F
WICHITA        MOSUNNY   89  62  40 S18G30    29.89F
OMAHA          PTSUNNY   92  64  39 S22G30    29.86F HX  93
LINCOLN        MOSUNNY   91  63  39 S24       29.85F HX  92
FALLS CITY     SUNNY     89  64  43 S14G23    29.91F HX  90
LAMONI         SUNNY     89  64  43 S12G17    29.95F HX  90
DES MOINES     MOSUNNY   90  62  39 SE13      29.93F HX  90

$$





USA.gov is the U.S. government's official web portal to all federal, state and local government web resources and services.